Wind_Speed
13 6 2 1 5 2 8 12 25 44 42 41 41 36 30 30 27 29 25 19 16 17 10 11 15 14 10 5 10 18 11 8 7 6 8 6 8 9 10 7 9 10 8
22 21 16 11 2 3 1 9 25 34 53 50 43 42 38 35 32 28 26 25 21 16 14 13 16 13 9 4 14 12 10 7 6 7 11 12 10 11 11 10 11 12 10
18 20 18 20 3 5 13 7 32 29 36 55 54 48 42 41 31 38 29 27 25 21 18 16 16 9 14 8 13 15 12 9 7 6 8 12 12 14 13 10 12 11 15
16 18 19 20 7 9 20 24 32 34 27 35 51 51 52 43 42 32 33 33 28 25 19 19 21 22 15 12 17 15 13 13 12 11 10 13 16 15 15 14 15 16 16
20 22 24 23 25 16 31 40 39 36 35 30 32 41 48 51 43 43 37 32 30 28 25 25 22 20 19 19 22 20 13 16 11 12 12 12 15 18 19 22 21 17 20
22 26 29 34 27 22 24 31 38 40 36 35 30 33 36 46 49 42 39 32 31 30 28 28 25 20 29 25 27 25 21 16 12 14 11 10 11 17 18 18 19 21 23
31 31 34 39 38 27 28 28 29 36 35 34 33 28 35 41 48 41 42 38 36 34 31 27 33 37 32 31 28 22 19 19 19 16 13 18 16 23 22 25 24 26 27
36 37 42 41 29 26 23 28 27 30 36 33 34 33 28 37 49 45 42 41 37 37 31 34 36 36 35 32 31 27 27 18 17 17 17 17 23 27 24 28 30 32 33
37 39 35 25 24 23 22 26 32 27 32 33 33 34 35 30 47 51 43 40 34 38 37 36 37 37 37 36 33 36 31 24 23 24 25 22 29 29 32 36 34 31 28
39 29 25 24 21 20 23 25 29 27 30 30 35 35 34 36 36 56 50 42 39 38 39 39 40 40 42 38 38 36 32 26 23 30 29 29 26 29 31 32 31 31 30
33 24 21 21 18 21 25 22 23 27 30 38 37 33 33 35 36 44 56 49 46 42 44 44 42 46 41 39 38 37 36 35 35 34 41 34 34 35 33 35 35 36 33
19 20 19 17 16 21 22 18 21 26 34 38 41 37 34 29 30 39 50 52 49 46 47 38 50 45 40 44 41 40 42 41 42 40 40 39 38 38 38 36 39 40 37
18 17 18 14 14 17 18 18 22 23 27 36 42 37 33 32 31 34 44 44 50 48 51 56 54 51 48 51 47 46 48 46 42 47 48 47 48 43 42 42 37 40 40
14 14 13 13 13 14 14 15 14 11 12 26 32 40 31 29 33 32 40 48 45 48 52 55 56 56 52 53 53 50 54 53 51 53 51 52 51 48 49 51 42 46 46
10 11 10 11 10 10 11 14 11 7 10 16 30 33 32 32 31 31 35 46 45 47 49 52 54 54 56 57 58 57 59 59 53 53 53 56 52 48 47 46 48 52 53
6 7 11 10 8 6 6 9 9 8 8 13 19 25 30 32 32 34 33 38 50 50 48 47 53 56 54 56 55 53 53 53 51 53 56 58 58 53 54 54 54 56 57
7 6 6 7 8 6 4 6 8 6 13 16 18 23 27 29 33 34 35 34 35 50 50 43 47 52 56 57 57 58 57 53 52 52 53 56 56 57 57 57 57 60 62
8 7 5 5 8 7 4 4 7 10 4 17 21 23 28 31 34 36 36 31 33 40 43 41 44 48 48 51 53 55 57 59 59 57 58 58 60 59 60 59 58 59 59
7 6 6 6 7 7 7 5 7 9 12 3 9 12 14 11 11 22 34 30 31 35 40 47 45 44 48 51 54 55 57 59 60 60 60 58 59 61 62 62 63 61 63
6 7 5 5 6 9 12 13 8 8 9 5 5 8 8 10 12 7 14 23 28 30 36 44 47 48 45 46 48 52 55 59 60 61 61 61 59 55 56 61 63 63 72
8 8 8 8 6 6 8 10 10 9 9 9 10 11 11 11 20 21 22 23 24 30 34 35 38 42 45 49 50 51 53 55 57 62 64 65 67 68 70 70 70 72 77
4 5 5 6 6 7 8 10 12 13 14 15 14 14 15 17 19 23 27 31 35 36 40 43 46 51 55 55 57 60 63 64 64 65 64 63 64 66 68 70 74 76 78
8 7 8 9 8 8 9 9 12 13 15 16 16 17 19 21 24 26 28 32 37 42 48 52 57 58 59 61 63 65 62 65 71 74 75 76 77 78 78 80 82 84 87
15 16 16 15 14 15 14 16 20 22 22 23 24 26 27 29 32 35 37 38 40 44 48 53 59 63 69 73 74 73 74 74 75 78 79 80 83 86 87 89 91 94 97
25 24 21 22 23 23 22 26 29 26 28 29 30 32 35 38 41 44 46 48 51 55 59 59 61 64 68 72 74 76 77 77 78 80 80 82 82 83 84 86 88 90 92
32 30 30 32 33 32 30 32 31 36 36 38 41 43 45 49 51 53 55 58 62 64 65 67 72 74 75 76 77 80 82 84 84 85 84 86 87 88 90 91 93 96 98
Wind_Direction
13 9 348 290 116 296 298 287 262 238 227 227 235 233 225 228 237 223 224 233 234 241 228 219 204 216 246 310 347 310 326 302 278 260 260 281 265 271 292 330 338 334 346
10 3 345 337 234 170 93 286 264 246 234 232 229 237 235 229 229 226 229 240 240 242 226 215 212 217 243 311 280 302 326 313 293 286 270 266 274 292 286 301 321 345 343
358 1 349 345 320 222 221 208 233 255 247 238 233 233 234 233 232 232 232 238 247 246 229 220 202 223 247 251 276 285 301 306 309 266 279 277 276 288 294 299 307 322 337
334 333 340 346 305 205 228 235 253 246 244 237 236 239 240 232 235 231 228 236 239 248 246 222 202 220 229 232 265 273 303 293 285 278 278 278 262 275 283 293 300 299 325
318 319 325 324 325 252 230 244 249 248 243 241 238 237 239 236 227 233 233 232 241 242 245 224 216 234 235 216 251 255 276 282 282 286 299 293 275 272 278 282 290 293 305
305 306 317 319 317 286 266 260 250 243 245 240 241 240 235 233 232 231 230 225 230 231 235 231 211 226 229 238 233 238 250 269 291 291 285 275 282 273 282 285 289 292 292
303 302 302 306 309 291 278 273 265 248 243 244 240 244 232 232 228 228 227 225 231 233 238 238 219 226 236 231 234 237 254 258 278 287 267 262 279 276 282 286 290 292 292
295 294 299 305 303 289 285 272 270 252 242 241 238 236 239 236 216 219 222 222 234 231 231 233 221 226 230 232 234 246 249 246 273 280 274 258 260 262 265 276 282 287 290
288 296 295 298 292 291 298 276 266 254 242 241 244 239 235 238 223 214 215 212 230 231 231 233 226 228 229 232 229 242 244 256 271 282 284 267 254 253 259 263 275 283 288
288 292 302 296 296 303 304 286 269 255 236 238 239 243 241 235 233 225 214 216 223 233 228 230 226 231 231 228 231 234 240 248 271 271 272 277 263 262 268 273 280 287 282
291 306 287 293 299 305 304 284 271 251 244 232 229 238 240 237 238 227 217 223 223 231 225 230 230 233 234 238 240 247 249 258 262 264 269 266 267 267 271 279 280 279 280
296 293 292 298 308 312 304 287 272 260 251 238 226 228 231 239 238 230 222 228 232 225 226 234 237 234 235 243 245 251 254 260 266 265 265 267 272 270 273 279 278 283 282
294 283 294 306 310 318 312 299 285 264 257 236 218 223 225 235 239 230 217 221 227 228 229 226 234 237 241 245 249 248 254 259 264 266 267 270 268 274 276 277 278 290 294
283 282 292 315 318 335 334 319 307 264 265 221 208 223 222 236 238 237 228 222 223 225 231 235 235 242 246 248 252 254 254 256 259 265 268 271 272 274 273 276 282 289 286
281 272 272 306 315 330 344 352 338 279 245 210 218 223 228 237 242 243 236 233 224 223 231 236 237 239 242 246 251 255 255 258 263 266 268 272 273 273 272 270 273 276 280
279 256 263 274 315 336 358 349 343 315 254 226 219 231 240 245 245 244 245 241 235 228 232 237 238 241 244 246 251 253 256 261 264 266 267 267 270 268 269 273 275 275 275
289 268 264 295 307 315 334 8 358 311 231 225 230 237 240 244 245 241 245 243 242 234 234 236 240 242 246 248 253 255 256 257 258 261 260 262 264 267 270 271 271 271 272
291 270 257 279 307 315 300 3 15 15 307 234 249 257 254 249 246 243 242 245 246 240 241 236 244 249 255 255 255 255 256 256 258 260 263 266 267 268 270 271 273 273 274
282 258 232 259 293 292 307 319 351 1 14 3 246 270 282 287 275 253 242 248 245 241 239 237 243 251 251 254 260 264 265 263 263 265 267 267 266 268 269 271 274 277 270
315 295 281 274 287 305 312 312 307 315 334 339 316 303 288 206 195 221 264 243 247 247 247 247 250 250 255 255 255 257 259 261 262 261 262 261 262 265 266 266 263 259 263
35 32 30 26 11 343 333 335 331 332 324 303 293 285 294 262 244 248 248 233 234 249 247 252 257 252 251 252 256 258 258 259 262 265 266 265 265 266 263 262 261 263 271
5 5 355 347 356 360 358 352 346 344 345 340 332 323 310 292 288 274 269 263 248 244 245 249 251 248 248 251 255 255 261 263 261 261 261 263 265 266 267 268 270 270 269
302 308 312 306 296 300 305 303 326 327 324 321 319 317 317 316 311 305 297 290 277 268 262 257 250 251 253 253 254 255 258 263 263 262 261 261 261 262 263 266 269 268 267
294 293 296 296 292 282 288 297 311 312 315 313 310 310 309 308 309 309 304 298 293 289 283 275 268 262 257 257 257 259 259 263 263 262 263 263 264 265 265 265 265 265 266
294 294 296 296 299 292 280 292 303 303 308 310 312 310 308 308 309 307 306 303 299 298 295 285 277 273 269 266 264 263 263 263 265 266 266 268 268 270 271 271 271 271 271
293 293 299 300 294 297 292 296 301 305 308 308 309 311 311 309 307 307 307 304 302 297 287 278 273 271 271 270 268 268 268 267 267 270 269 270 271 272 273 273 275 275 275
Height
10936 10935 10937 10942 10946 10940 10937 10946 10948 10957 10960 10955 10954 10956 10959 10962 10965 10968 10970 10973 10974 10976 10976 10976 10977 10979 10980 10980 10979 10980 10978 10976 10975 10977 10977 10977 10977 10977 10976 10976 10976 10975 10974
10936 10933 10933 10938 10945 10940 10940 10944 10953 10949 10955 10953 10950 10950 10954 10957 10961 10964 10968 10970 10972 10973 10974 10975 10976 10978 10980 10979 10979 10979 10977 10976 10976 10976 10976 10976 10976 10976 10975 10975 10975 10974 10973
10936 10935 10933 10935 10941 10943 10932 10933 10922 10942 10942 10946 10944 10943 10947 10952 10955 10960 10964 10967 10970 10972 10973 10974 10976 10978 10978 10978 10979 10978 10977 10976 10975 10975 10975 10974 10974 10974 10974 10974 10974 10973 10972
10934 10932 10930 10930 10937 10941 10937 10931 10933 10937 10937 10936 10936 10936 10939 10944 10950 10954 10957 10961 10966 10969 10972 10973 10974 10974 10975 10977 10977 10976 10975 10975 10974 10974 10973 10972 10971 10972 10972 10972 10972 10971 10970
10931 10928 10925 10925 10929 10933 10935 10932 10932 10930 10930 10929 10928 10928 10930 10936 10942 10948 10952 10956 10961 10966 10970 10971 10971 10971 10971 10972 10975 10974 10973 10973 10973 10971 10971 10970 10969 10969 10969 10969 10969 10968 10967
10927 10924 10923 10920 10918 10920 10920 10920 10918 10919 10920 10921 10921 10922 10923 10928 10934 10941 10947 10951 10956 10960 10965 10967 10967 10958 10958 10966 10970 10971 10970 10971 10971 10970 10968 10968 10968 10967 10967 10966 10966 10966 10964
10922 10921 10919 10917 10914 10912 10909 10908 10907 10908 10910 10913 10914 10916 10918 10920 10926 10933 10940 10946 10950 10956 10960 10961 10961 10960 10959 10964 10966 10967 10968 10968 10967 10967 10966 10965 10965 10964 10962 10963 10962 10962 10961
10919 10916 10912 10910 10907 10905 10902 10900 10898 10899 10901 10903 10906 10909 10912 10914 10919 10926 10934 10941 10944 10951 10954 10955 10955 10958 10959 10961 10962 10962 10962 10963 10962 10963 10963 10962 10962 10960 10960 10958 10958 10957 10956
10912 10909 10906 10904 10902 10898 10895 10892 10890 10892 10893 10896 10900 10903 10906 10909 10914 10918 10927 10933 10939 10943 10948 10950 10952 10953 10954 10955 10955 10956 10957 10957 10958 10958 10957 10957 10957 10956 10955 10955 10953 10953 10951
10906 10903 10901 10898 10895 10891 10887 10884 10883 10884 10886 10890 10893 10896 10900 10904 10908 10912 10921 10925 10931 10935 10939 10942 10943 10945 10946 10948 10950 10949 10951 10951 10952 10953 10952 10951 10951 10950 10949 10949 10948 10947 10946
10900 10898 10895 10892 10890 10886 10882 10878 10876 10877 10878 10882 10886 10890 10895 10899 10902 10905 10912 10916 10922 10927 10932 10938 10939 10940 10945 10946 10947 10946 10945 10944 10946 10946 10945 10945 10944 10943 10942 10942 10940 10939 10938
10895 10892 10890 10888 10885 10881 10875 10872 10871 10870 10870 10873 10879 10884 10889 10892 10896 10899 10904 10909 10914 10921 10927 10936 10933 10936 10941 10943 10940 10939 10939 10938 10938 10939 10938 10938 10937 10936 10935 10934 10932 10931 10930
10891 10888 10886 10883 10881 10876 10870 10866 10863 10862 10861 10863 10871 10877 10883 10886 10890 10892 10897 10902 10905 10911 10915 10918 10922 10926 10929 10930 10932 10931 10931 10928 10930 10928 10928 10929 10928 10927 10926 10925 10924 10923 10922
10887 10884 10883 10880 10877 10873 10868 10863 10858 10858 10856 10858 10866 10871 10878 10881 10884 10887 10889 10894 10898 10902 10904 10909 10914 10915 10920 10920 10920 10922 10918 10918 10919 10919 10919 10918 10918 10918 10917 10916 10915 10914 10912
10882 10880 10879 10877 10875 10871 10866 10863 10859 10856 10857 10858 10865 10870 10873 10876 10877 10880 10883 10885 10889 10893 10896 10899 10902 10904 10907 10908 10909 10910 10910 10909 10909 10909 10909 10908 10908 10908 10906 10905 10903 10902 10901
10878 10877 10876 10876 10874 10870 10866 10864 10861 10858 10858 10860 10864 10866 10868 10870 10872 10875 10877 10879 10881 10884 10887 10891 10893 10894 10897 10897 10898 10899 10899 10899 10899 10898 10897 10897 10896 10896 10894 10893 10891 10889 10888
10876 10875 10874 10873 10872 10869 10866 10863 10860 10858 10858 10859 10861 10862 10863 10865 10866 10868 10870 10871 10872 10874 10879 10882 10883 10883 10885 10886 10888 10888 10888 10887 10886 10885 10884 10883 10882 10881 10880 10879 10878 10875 10874
10873 10872 10871 10870 10869 10868 10866 10863 10860 10857 10855 10857 10858 10859 10859 10859 10860 10861 10862 10863 10864 10865 10868 10873 10873 10874 10875 10876 10875 10875 10875 10874 10874 10873 10872 10871 10869 10868 10866 10865 10862 10860 10858
10870 10869 10868 10867 10866 10865 10865 10862 10860 10858 10856 10856 10857 10857 10855 10854 10855 10855 10856 10857 10856 10857 10860 10862 10865 10865 10865 10864 10863 10862 10860 10860 10859 10859 10858 10856 10854 10853 10850 10848 10847 10844 10841
10868 10867 10865 10864 10863 10862 10861 10859 10858 10856 10855 10854 10853 10853 10852 10851 10850 10851 10852 10852 10854 10854 10854 10855 10854 10853 10853 10851 10850 10849 10847 10846 10845 10844 10843 10842 10840 10838 10835 10832 10831 10829 10824
10866 10865 10863 10861 10859 10859 10857 10856 10854 10854 10853 10851 10850 10850 10849 10849 10849 10848 10848 10847 10847 10847 10846 10845 10845 10844 10842 10840 10838 10836 10834 10832 10830 10828 10827 10825 10823 10822 10818 10815 10812 10811 10807
10864 10862 10861 10860 10858 10857 10855 10854 10853 10852 10851 10849 10847 10846 10846 10846 10845 10844 10843 10842 10841 10838 10836 10834 10831 10828 10826 10824 10822 10821 10818 10816 10815 10813 10809 10808 10805 10802 10799 10795 10791 10789 10787
10863 10861 10859 10858 10856 10854 10853 10851 10850 10849 10847 10846 10844 10842 10841 10840 10839 10837 10836 10834 10832 10829 10825 10823 10819 10816 10812 10808 10806 10804 10800 10797 10795 10792 10789 10788 10786 10783 10780 10776 10772 10768 10766
10860 10858 10856 10854 10852 10850 10849 10848 10847 10844 10842 10840 10838 10837 10835 10832 10830 10828 10825 10823 10820 10817 10813 10809 10805 10800 10795 10791 10787 10783 10779 10775 10773 10771 10768 10764 10762 10759 10756 10752 10748 10743 10739
10855 10852 10850 10848 10846 10844 10843 10841 10839 10837 10834 10832 10830 10828 10825 10822 10819 10816 10812 10808 10803 10798 10794 10789 10784 10779 10774 10770 10765 10761 10757 10752 10750 10744 10743 10738 10736 10732 10729 10725 10720 10715 10711
10847 10844 10842 10840 10838 10836 10833 10832 10829 10825 10824 10821 10818 10814 10810 10807 10803 10800 10795 10790 10784 10777 10770 10763 10758 10753 10749 10745 10740 10737 10733 10729 10725 10718 10719 10714 10709 10707 10703 10699 10695 10687 10684